Location: Gorze? G�rny
(49.8500°N, 19.5000°E)
Time: 05:21:18
(UTC+00:00)

Cosmos 158 Rocket - Pass Details

Date: 13 May 2021
Orbit: 699 x 793 km, 74.0° (Epoch: 20 June)

Event Time Altitude Azimuth Distance (km) Brightness Sun altitude
Rises 20:10:57 0° 333° (NNW) 3,095 9.0 -14.2°
Reaches altitude 10° 20:13:17 10° 331° (NNW) 2,174 7.8 -14.4°
Maximum altitude 20:18:06 62° 251° (WSW) 794 4.1 -14.9°
Enters shadow 20:21:23 20° 176° (S) 1,594 5.1 -15.2°
